�������l�o���
Date,Time,MP-1(��Sv/h),MP-2(��Sv/h),MP-3(��Sv/h),MP-4(��Sv/h),MP-5(��Sv/h),MP-6(��Sv/h),MP-7(��Sv/h),����,����(m/s),���J
2017/10/29,00:00,0.323,0.208,0.338,0.320,0.310,0.168,0.101,-,CALM,�L
2017/10/29,00:10,0.321,0.209,0.338,0.320,0.311,0.167,0.101,��,1.2,�L
2017/10/29,00:20,0.320,0.209,0.338,0.318,0.309,0.168,0.100,��쐼,1.4,�L
2017/10/29,00:30,0.322,0.208,0.338,0.320,0.310,0.167,0.100,��쐼,2.2,�L
2017/10/29,00:40,0.321,0.208,0.336,0.319,0.308,0.168,0.100,�쐼,2.5,�L
2017/10/29,00:50,0.321,0.208,0.339,0.319,0.309,0.168,0.101,�쐼,2.4,�L
2017/10/29,01:00,0.320,0.209,0.337,0.319,0.308,0.167,0.101,���쐼,2.0,�L
2017/10/29,01:10,0.323,0.209,0.338,0.318,0.309,0.167,0.101,�쐼,2.1,�L
2017/10/29,01:20,0.321,0.208,0.337,0.321,0.308,0.167,0.101,��,1.6,�L
2017/10/29,01:30,0.322,0.209,0.337,0.318,0.310,0.168,0.100,��,1.4,�L
2017/10/29,01:40,0.322,0.208,0.336,0.319,0.308,0.166,0.101,���k��,1.2,�L
2017/10/29,01:50,0.320,0.208,0.335,0.318,0.309,0.168,0.100,�k��,1.8,�L
2017/10/29,02:00,0.323,0.208,0.337,0.319,0.308,0.167,0.100,�k��,1.7,�L
2017/10/29,02:10,0.320,0.207,0.336,0.319,0.308,0.166,0.100,-,CALM,�L
2017/10/29,02:20,0.322,0.207,0.336,0.317,0.309,0.166,0.100,-,CALM,�L
2017/10/29,02:30,0.320,0.208,0.335,0.319,0.307,0.166,0.100,-,CALM,�L
2017/10/29,02:40,0.322,0.207,0.335,0.317,0.310,0.166,0.100,-,CALM,�L
2017/10/29,02:50,0.320,0.208,0.337,0.317,0.307,0.166,0.099,�k,1.6,�L
2017/10/29,03:00,0.321,0.206,0.335,0.316,0.310,0.166,0.099,�k,1.8,�L
2017/10/29,03:10,0.321,0.207,0.335,0.317,0.307,0.166,0.100,�k,2.4,�L
2017/10/29,03:20,0.319,0.208,0.335,0.318,0.309,0.166,0.100,-,CALM,�L
2017/10/29,03:30,0.321,0.207,0.336,0.316,0.308,0.166,0.100,-,CALM,�L
2017/10/29,03:40,0.318,0.207,0.335,0.318,0.307,0.167,0.101,-,CALM,�L
2017/10/29,03:50,0.320,0.207,0.332,0.316,0.308,0.168,0.100,-,CALM,�L
2017/10/29,04:00,0.319,0.208,0.334,0.315,0.305,0.166,0.101,-,CALM,�L
2017/10/29,04:10,0.319,0.207,0.332,0.316,0.309,0.166,0.100,-,CALM,�L
2017/10/29,04:20,0.319,0.207,0.332,0.316,0.306,0.165,0.100,-,CALM,�L
2017/10/29,04:30,0.319,0.208,0.332,0.315,0.309,0.166,0.101,-,CALM,�L
2017/10/29,04:40,0.319,0.206,0.330,0.314,0.306,0.166,0.100,-,CALM,�L
2017/10/29,04:50,0.319,0.208,0.332,0.315,0.307,0.165,0.100,-,CALM,�L
2017/10/29,05:00,0.319,0.207,0.330,0.313,0.308,0.166,0.101,-,CALM,�L
2017/10/29,05:10,0.318,0.207,0.332,0.314,0.305,0.165,0.100,�k�k��,5.7,�L
2017/10/29,05:20,0.318,0.206,0.331,0.314,0.309,0.165,0.101,�k�k��,5.9,�L
2017/10/29,05:30,0.318,0.207,0.329,0.313,0.305,0.164,0.100,�k,6.0,�L
2017/10/29,05:40,0.318,0.207,0.332,0.313,0.309,0.165,0.100,�k�k��,5.9,�L
2017/10/29,05:50,0.318,0.206,0.329,0.310,0.305,0.164,0.100,�k�k��,6.0,�L
2017/10/29,06:00,0.318,0.205,0.330,0.312,0.306,0.164,0.099,-,CALM,�L
2017/10/29,06:10,0.317,0.206,0.329,0.314,0.306,0.165,0.100,-,CALM,�L
2017/10/29,06:20,0.318,0.207,0.329,0.311,0.306,0.164,0.100,�k��,8.1,�L
2017/10/29,06:30,0.316,0.205,0.329,0.312,0.307,0.164,0.099,�k,7.0,�L
2017/10/29,06:40,0.318,0.206,0.328,0.310,0.305,0.165,0.100,�k�k��,5.0,�L
2017/10/29,06:50,0.318,0.205,0.328,0.312,0.307,0.165,0.100,�k�k��,5.9,�L
2017/10/29,07:00,0.317,0.207,0.327,0.310,0.306,0.166,0.101,-,CALM,�L
2017/10/29,07:10,0.319,0.206,0.326,0.310,0.307,0.166,0.101,�k�k��,7.3,�L
2017/10/29,07:20,0.315,0.205,0.327,0.309,0.304,0.165,0.101,�k�k��,8.1,�L
2017/10/29,07:30,0.316,0.205,0.324,0.306,0.304,0.164,0.101,�k�k��,7.5,�L
2017/10/29,07:40,0.313,0.205,0.326,0.306,0.307,0.163,0.100,�k�k��,7.6,�L
2017/10/29,07:50,0.315,0.204,0.323,0.305,0.303,0.163,0.100,�k,8.4,�L
2017/10/29,08:00,0.315,0.205,0.324,0.305,0.306,0.163,0.100,�k,8.2,�L
2017/10/29,08:10,0.314,0.204,0.325,0.306,0.304,0.163,0.100,�k,7.3,�L
2017/10/29,08:20,0.314,0.205,0.325,0.306,0.304,0.164,0.101,�k,7.9,�L
2017/10/29,08:30,0.315,0.204,0.325,0.308,0.306,0.163,0.101,�k,8.4,�L
2017/10/29,08:40,0.314,0.205,0.324,0.305,0.304,0.163,0.101,�k,9.2,�L
2017/10/29,08:50,0.314,0.205,0.325,0.306,0.306,0.163,0.101,�k,8.5,�L
2017/10/29,09:00,0.314,0.204,0.325,0.306,0.305,0.164,0.101,�k�k��,8.5,�L
2017/10/29,09:10,0.315,0.205,0.324,0.304,0.306,0.163,0.101,�k�k��,8.2,�L
2017/10/29,09:20,0.312,0.204,0.323,0.305,0.304,0.164,0.100,�k�k��,8.4,�L
2017/10/29,09:30,0.314,0.203,0.321,0.302,0.304,0.163,0.100,�k,7.9,�L
2017/10/29,09:40,0.311,0.205,0.323,0.303,0.304,0.163,0.099,�k�k��,7.6,�L
2017/10/29,09:50,0.314,0.203,0.323,0.302,0.303,0.162,0.099,�k,8.7,�L
2017/10/29,10:00,0.312,0.204,0.322,0.303,0.303,0.163,0.100,�k�k��,8.4,�L
2017/10/29,10:10,0.312,0.204,0.323,0.304,0.303,0.162,0.100,�k�k��,8.6,�L
2017/10/29,10:20,0.313,0.203,0.322,0.303,0.305,0.161,0.099,-,CALM,�L
2017/10/29,10:30,0.312,0.204,0.323,0.303,0.304,0.162,0.100,-,CALM,�L
2017/10/29,10:40,0.313,0.203,0.323,0.303,0.303,0.162,0.099,-,CALM,�L
2017/10/29,10:50,0.313,0.203,0.321,0.305,0.304,0.163,0.101,-,CALM,�L
2017/10/29,11:00,0.313,0.204,0.324,0.305,0.305,0.162,0.099,-,CALM,�L
2017/10/29,11:10,0.314,0.204,0.323,0.305,0.304,0.163,0.099,-,CALM,�L
2017/10/29,11:20,0.313,0.204,0.325,0.305,0.304,0.162,0.101,-,CALM,�L
2017/10/29,11:30,0.315,0.205,0.324,0.304,0.306,0.164,0.101,-,CALM,�L
2017/10/29,11:40,0.314,0.204,0.324,0.307,0.304,0.163,0.102,-,CALM,�L
2017/10/29,11:50,0.314,0.205,0.325,0.304,0.306,0.163,0.100,-,CALM,�L
2017/10/29,12:00,0.314,0.205,0.323,0.307,0.302,0.163,0.101,-,CALM,�L
2017/10/29,12:10,0.313,0.205,0.327,0.306,0.306,0.163,0.101,-,CALM,�L
2017/10/29,12:20,0.317,0.205,0.325,0.307,0.304,0.163,0.100,-,CALM,�L
2017/10/29,12:30,0.313,0.204,0.326,0.308,0.304,0.163,0.100,-,CALM,��
2017/10/29,12:40,0.315,0.204,0.325,0.306,0.306,0.163,0.099,�k,10.1,��
2017/10/29,12:50,0.315,0.204,0.324,0.310,0.305,0.162,0.099,�k�k��,9.6,�L
2017/10/29,13:00,0.315,0.204,0.327,0.307,0.306,0.162,0.099,�k�k��,9.5,�L
2017/10/29,13:10,0.315,0.203,0.325,0.307,0.305,0.162,0.100,�k�k��,9.5,��
2017/10/29,13:20,0.315,0.203,0.326,0.308,0.306,0.162,0.099,�k�k��,10.3,�L
2017/10/29,13:30,0.316,0.205,0.326,0.307,0.304,0.161,0.098,�k�k��,9.2,�L
2017/10/29,13:40,0.314,0.204,0.325,0.307,0.305,0.161,0.098,�k�k��,9.5,�L
2017/10/29,13:50,0.315,0.202,0.326,0.306,0.305,0.162,0.098,�k�k��,8.9,�L
2017/10/29,14:00,0.312,0.203,0.323,0.306,0.302,0.162,0.098,�k�k��,7.8,�L
2017/10/29,14:10,0.314,0.202,0.326,0.303,0.302,0.161,0.098,�k�k��,8.4,�L
2017/10/29,14:20,0.313,0.203,0.323,0.305,0.301,0.161,0.098,�k�k��,9.0,�L
2017/10/29,14:30,0.312,0.202,0.324,0.305,0.306,0.161,0.098,�k�k��,9.8,�L
2017/10/29,14:40,0.314,0.203,0.324,0.306,0.301,0.160,0.098,�k�k��,10.6,�L
2017/10/29,14:50,0.312,0.204,0.325,0.305,0.303,0.160,0.099,�k�k��,9.2,��
2017/10/29,15:00,0.315,0.201,0.326,0.307,0.302,0.160,0.098,�k�k��,8.1,��
2017/10/29,15:10,0.314,0.203,0.323,0.307,0.305,0.160,0.098,�k�k��,8.2,�L
2017/10/29,15:20,0.315,0.202,0.325,0.307,0.303,0.160,0.097,�k�k��,8.3,�L
2017/10/29,15:30,0.314,0.204,0.324,0.308,0.303,0.161,0.098,�k�k��,9.0,�L
2017/10/29,15:40,0.314,0.203,0.325,0.306,0.304,0.161,0.098,�k�k��,10.1,�L
2017/10/29,15:50,0.314,0.201,0.325,0.307,0.303,0.160,0.098,�k�k��,8.9,�L
2017/10/29,16:00,0.314,0.202,0.325,0.306,0.304,0.161,0.098,�k�k��,8.7,�L
2017/10/29,16:10,0.315,0.201,0.325,0.308,0.302,0.161,0.097,�k�k��,7.0,�L
2017/10/29,16:20,0.313,0.202,0.325,0.305,0.304,0.161,0.098,�k�k��,6.0,�L
2017/10/29,16:30,0.313,0.201,0.323,0.304,0.302,0.160,0.098,�k�k��,7.4,�L
2017/10/29,16:40,0.311,0.202,0.321,0.303,0.303,0.160,0.097,�k,8.7,�L
2017/10/29,16:50,0.311,0.202,0.321,0.301,0.300,0.159,0.097,�k�k��,8.1,�L
2017/10/29,17:00,0.310,0.201,0.320,0.302,0.302,0.160,0.098,�k�k��,7.9,�L
2017/10/29,17:10,0.311,0.203,0.320,0.300,0.300,0.160,0.097,�k,7.3,�L
2017/10/29,17:20,0.310,0.201,0.317,0.301,0.301,0.159,0.098,�k,10.7,�L
2017/10/29,17:30,0.311,0.203,0.321,0.300,0.302,0.161,0.099,�k�k��,9.5,�L
2017/10/29,17:40,0.311,0.202,0.320,0.302,0.302,0.161,0.099,�k�k��,8.2,�L
2017/10/29,17:50,0.313,0.202,0.321,0.302,0.303,0.161,0.099,�k��,6.4,�L
2017/10/29,18:00,0.313,0.202,0.322,0.303,0.300,0.160,0.099,�k�k��,6.2,�L
2017/10/29,18:10,0.311,0.202,0.321,0.303,0.304,0.161,0.099,�k�k��,6.3,�L
2017/10/29,18:20,0.314,0.203,0.322,0.304,0.301,0.160,0.099,�k�k��,7.6,��
2017/10/29,18:30,0.312,0.203,0.322,0.306,0.304,0.161,0.097,�k�k��,6.0,��
2017/10/29,18:40,0.313,0.202,0.322,0.305,0.303,0.160,0.099,�k,6.8,��
2017/10/29,18:50,0.313,0.203,0.323,0.306,0.305,0.160,0.098,�k,6.4,��
2017/10/29,19:00,0.313,0.201,0.322,0.306,0.301,0.160,0.098,�k,4.9,�L
2017/10/29,19:10,0.313,0.202,0.324,0.307,0.304,0.161,0.098,�k,6.0,�L
2017/10/29,19:20,0.311,0.201,0.320,0.304,0.302,0.160,0.098,�k,5.3,�L
2017/10/29,19:30,0.312,0.202,0.321,0.304,0.303,0.160,0.099,�k,10.4,�L
2017/10/29,19:40,0.312,0.203,0.320,0.303,0.303,0.159,0.099,�k,6.8,�L
2017/10/29,19:50,0.313,0.203,0.323,0.303,0.303,0.161,0.099,�k,5.4,�L
2017/10/29,20:00,0.311,0.202,0.321,0.303,0.302,0.160,0.099,�k,9.8,�L
2017/10/29,20:10,0.311,0.202,0.320,0.301,0.301,0.161,0.099,�k,9.5,�L
2017/10/29,20:20,0.311,0.204,0.321,0.304,0.305,0.162,0.100,�k�k��,7.0,�L
2017/10/29,20:30,0.313,0.204,0.320,0.301,0.301,0.161,0.099,�k,8.1,�L
2017/10/29,20:40,0.312,0.202,0.320,0.302,0.304,0.161,0.100,�k,9.8,�L
2017/10/29,20:50,0.311,0.204,0.320,0.301,0.299,0.161,0.100,�k,7.3,�L
2017/10/29,21:00,0.311,0.203,0.318,0.301,0.303,0.161,0.100,�k,6.6,�L
2017/10/29,21:10,0.311,0.203,0.320,0.301,0.302,0.161,0.101,�k,9.5,�L
2017/10/29,21:20,0.313,0.203,0.320,0.303,0.304,0.163,0.100,�k�k��,9.5,�L
2017/10/29,21:30,0.312,0.203,0.322,0.305,0.304,0.162,0.100,�k�k��,9.8,�L
2017/10/29,21:40,0.314,0.203,0.320,0.304,0.305,0.162,0.099,�k�k��,9.0,�L
2017/10/29,21:50,0.313,0.203,0.324,0.306,0.303,0.161,0.099,�k�k��,8.1,�L
2017/10/29,22:00,0.314,0.204,0.322,0.305,0.305,0.162,0.100,�k,8.5,��
2017/10/29,22:10,0.314,0.203,0.324,0.308,0.303,0.162,0.100,�k,7.4,�L
2017/10/29,22:20,0.314,0.205,0.325,0.306,0.305,0.162,0.100,�k,7.4,�L
2017/10/29,22:30,0.314,0.204,0.324,0.309,0.306,0.162,0.100,�k,6.8,�L
2017/10/29,22:40,0.314,0.204,0.324,0.307,0.304,0.161,0.099,�k,7.4,�L
2017/10/29,22:50,0.315,0.204,0.323,0.309,0.307,0.163,0.100,�k,7.0,��
2017/10/29,23:00,0.314,0.203,0.326,0.309,0.303,0.162,0.099,�k�k��,7.3,��
2017/10/29,23:10,0.315,0.204,0.324,0.306,0.307,0.161,0.099,�k�k��,4.6,��
2017/10/29,23:20,0.314,0.202,0.326,0.310,0.304,0.161,0.098,�k�k��,3.2,��
2017/10/29,23:30,0.315,0.202,0.325,0.306,0.306,0.161,0.098,�k��,4.8,��
2017/10/29,23:40,0.313,0.202,0.324,0.309,0.305,0.160,0.098,�k�k��,3.2,��
2017/10/29,23:50,0.315,0.201,0.325,0.307,0.305,0.160,0.098,�k�k��,7.0,��
